Other Public Products
Issued by NWS Charleston, SC

Current Version | Previous Version | Graphics & Text | Print | Product List | Glossary On
Versions: 1 2 3 4 5 6 7 8 9 10 11 12 13 14 15 16 17 18 19 20 21 22 23 24 25 26 27 28 29 30 31 32 33 34 35 36 37 38 39 40 41 42 43 44 45 46 47 48 49 50
771 FPUS82 KCHS 221812 OPUCHS TEST...KCHS/KSAV Gateway Observations...TEST National Weather Service Charleston SC 100 PM EST WED NOV 22 2017 NOTE: "fair" indicates few or no clouds below 12,000 feet with no significant weather and/or obstructions to visibility. SCZ050-WAZ558-NCZ071-TXZ119-213-PAZ071-DCZ001-FLZ074-172-MI076- NYZ176-178-MAZ016-IL014-TNZ027-NJZ106-GAZ044-MD014-221900- ...Gateway Observations for Charleston International... CITY SKY/WX TMP DP RH WIND PRES REMARKS Chas Airport PTSUNNY 66 57 72 N9 29.99F 6HR MIN TEMP: 59; 6HR MAX TEMP: 66; Seattle PTSUNNY 60 57 89 S5 29.99S 6HR MIN TEMP: 57; 6HR MAX TEMP: 62; 6HR PCP: TRACE; Charlotte MOSUNNY 65 43 44 N10G17 30.04F 6HR MIN TEMP: 46; 6HR MAX TEMP: 65; Dallas DFW PTSUNNY 51 20 29 N13 30.35F 6HR MIN TEMP: 41; 6HR MAX TEMP: 51; Dallas Love PTSUNNY 51 23 33 N10 30.36F 6HR MIN TEMP: 41; 6HR MAX TEMP: 51; Philladelphia MOSUNNY 56 34 43 W17G26 29.93R 6HR MIN TEMP: 51; 6HR MAX TEMP: 57; 6HR PCP: 0.01; Wash National MOSUNNY 55 33 43 NW16G28 30.02R 6HR MIN TEMP: 51; 6HR MAX TEMP: 59; Baltimore MOSUNNY 53 32 44 W25G32 29.99R 6HR MIN TEMP: 48; 6HR MAX TEMP: 57; Miami MOSUNNY 84 68 58 VRB5 29.90F 6HR MIN TEMP: 72; 6HR MAX TEMP: 85; Detroit CLOUDY 34 18 52 W8 30.27F WCI 27 6HR MIN TEMP: 30; 6HR MAX TEMP: 34; Newark PTSUNNY 53 41 63 NW16G25 29.88F 6HR MIN TEMP: 49; 6HR MAX TEMP: 55; 6HR PCP: 0.09; Laguardia PTSUNNY 52 42 69 NW21 29.87F 6HR MIN TEMP: 51; 6HR MAX TEMP: 55; 6HR PCP: 0.16; J F K PTSUNNY 52 44 74 NW23 29.87F 6HR MIN TEMP: 51; 6HR MAX TEMP: 54; 6HR PCP: 0.24; Boston Logan LGT RAIN 51 51 100 SE8 29.79F FOG 6HR MIN TEMP: 49; 6HR MAX TEMP: 52; 6HR PCP: 0.58; Ft. Lauderdale MOSUNNY 82 66 58 E12 29.90F 6HR MIN TEMP: 70; 6HR MAX TEMP: 82; Chicago O`Hare MOSUNNY 32 14 47 W8 30.33F WCI 25 6HR MIN TEMP: 22; 6HR MAX TEMP: 32; Chicago Midway MOSUNNY 32 15 49 W8 30.34F WCI 25 6HR MIN TEMP: 23; 6HR MAX TEMP: 32; Houston Bush MOSUNNY 66 50 56 N10 30.22F 6HR MIN TEMP: 56; 6HR MAX TEMP: 67; Houston Hobby MOSUNNY 67 52 58 N13 30.21F 6HR MIN TEMP: 58; 6HR MAX TEMP: 67; Nashville MOSUNNY 46 25 43 NE9 30.27F 6HR MIN TEMP: 32; 6HR MAX TEMP: 46; Atlanta PTSUNNY 61 39 44 N12 30.06F 6HR MIN TEMP: 48; 6HR MAX TEMP: 61; $$ GAZ044-118-TXZ119-213-NCZ071-DCZ001-MDZ014-506-PAZ021-071-NJZ106- NYZ176-178-MAZ106-OHZ011-021-055-MIZ076-KYZ091-ILZ014-INZ047- MNZ060-ONZ431-221900- ...Gateway Observations for Savannah International... CITY SKY/WX TMP DP RH WIND PRES REMARKS Savannah Arpt PTSUNNY 68 59 73 VRB3 30.01S 6HR MIN TEMP: 59; 6HR MAX TEMP: 68; Atlanta PTSUNNY 61 39 44 N12 30.06F 6HR MIN TEMP: 48; 6HR MAX TEMP: 61; Charlotte MOSUNNY 65 43 44 N10G17 30.04F 6HR MIN TEMP: 46; 6HR MAX TEMP: 65; Dallas DFW PTSUNNY 51 20 29 N13 30.35F 6HR MIN TEMP: 41; 6HR MAX TEMP: 51; Houston Bush MOSUNNY 66 50 56 N10 30.22F 6HR MIN TEMP: 56; 6HR MAX TEMP: 67; Wash National MOSUNNY 55 33 43 NW16G28 30.02R 6HR MIN TEMP: 51; 6HR MAX TEMP: 59; Wash Dulles MOSUNNY 51 30 44 NW22G28 30.03S 6HR MIN TEMP: 46; 6HR MAX TEMP: 56; Baltimore MOSUNNY 53 32 44 W25G32 29.99R 6HR MIN TEMP: 48; 6HR MAX TEMP: 57; Philadelphia MOSUNNY 56 34 43 W17G26 29.93R 6HR MIN TEMP: 51; 6HR MAX TEMP: 57; 6HR PCP: 0.01; Newark PTSUNNY 53 41 63 NW16G25 29.88F 6HR MIN TEMP: 49; 6HR MAX TEMP: 55; 6HR PCP: 0.09; Laguardia PTSUNNY 52 42 69 NW21 29.87F 6HR MIN TEMP: 51; 6HR MAX TEMP: 55; 6HR PCP: 0.16; J F K PTSUNNY 52 44 74 NW23 29.87F 6HR MIN TEMP: 51; 6HR MAX TEMP: 54; 6HR PCP: 0.24; Boston LGT RAIN 51 51 100 SE8 29.79F FOG 6HR MIN TEMP: 49; 6HR MAX TEMP: 52; 6HR PCP: 0.58; Pittsburg CLOUDY 34 26 72 NW13 30.18F WCI 25 6HR MIN TEMP: 33; 6HR MAX TEMP: 36; 6HR PCP: 0.05; Akron CLOUDY 33 23 66 NW9 30.21S WCI 25 6HR MIN TEMP: 33; 6HR MAX TEMP: 33; 6HR PCP: TRACE; Cleveland CLOUDY 34 21 59 W10 30.27S WCI 26 6HR MIN TEMP: 34; 6HR MAX TEMP: 35; Cincinnati CLOUDY 38 27 64 N8 30.28F WCI 32 6HR MIN TEMP: 26; 6HR MAX TEMP: 39; Columbus CLOUDY 35 23 60 N7 30.26F WCI 29 Detroit CLOUDY 34 18 52 W8 30.27F WCI 27 6HR MIN TEMP: 30; 6HR MAX TEMP: 34; Chicago O`Hare MOSUNNY 32 14 47 W8 30.33F WCI 25 6HR MIN TEMP: 22; 6HR MAX TEMP: 32; Minneapolis CLOUDY 23 13 65 S8 30.24F WCI 14 6HR MIN TEMP: 15; 6HR MAX TEMP: 23; Indianapolis PTSUNNY 36 23 59 N3 30.31F 6HR MIN TEMP: 23; 6HR MAX TEMP: 37; Toronto Canada PTSUNNY 32 16 51 W15G22 30.15S WCI 22 $$

USA.gov is the U.S. government's official web portal to all federal, state and local government web resources and services.